Regional Weather Roundup
Issued by NWS Goodland, KS

Home | Current Version | Previous Version | Graphics & Text | Print | Product List | Glossary On
Versions: 1 2 3 4 5 6 7 8 9 10 11 12 13 14 15 16 17 18 19 20 21 22 23 24 25 26 27 28 29 30 31 32 33 34 35 36 37 38 39 40 41 42 43 44 45 46 47 48 49 50
000
ASUS43 KGLD 031659
RWRGLD

GOODLAND FORECAST AREA HOURLY WEATHER ROUNDUP
NATIONAL WEATHER SERVICE GOODLAND KS
1000 AM MST SAT DEC 03 2016

...OFFICIAL OBSERVATIONS...

CITY           SKY/WX    TMP DP  RH WIND       PRES   REMARKS
GOODLAND KS    CLOUDY    35  26  69 S12       30.09F
HILL CITY KS   CLOUDY    32  31  96 SE6       30.19F FOG
IMPERIAL NEB   SUNNY     38  21  50 S12       30.08F
MCCOOK NEB     CLOUDY    37  25  61 S9        30.15S
AKRON CO       SUNNY     34  19  54 SW14      30.01F
BURLINGTON CO  SUNNY     38  23  55 S15       30.07F
LIMON CO       SUNNY     33  23  66 S7        30.01F
$$

...UNOFFICIAL OBSERVATIONS...

CITY           SKY/WX    TMP DP  RH WIND       PRES   REMARKS
COLBY KS       LGT SNOW  34  32  93 S7        30.14F
LENORA KS        N/A     32  32 100 MISG        N/A
NORTON KS      CLOUDY    34  27  75 SE6       30.18S
SHARON SPRINGS   N/A     35  29  78 S5          N/A
TRENTON NEB      N/A     39  32  76 SW6         N/A
KIT CARSON CO    N/A     31  25  77 MISG        N/A
YUMA CO        FAIR      32  21  64 S13       30.04F
$$



USA.gov is the U.S. government's official web portal to all federal, state and local government web resources and services.